Dewpoint
67 66 66 68 68 68 67 67 67 67 67 66 66 66 65 65 64 62 64 63 66 66 66 65 65 63 63 62 61 61 61 61 62
66 65 65 67 67 67 66 67 66 66 66 66 66 65 64 64 64 64 65 64 65 65 65 64 64 63 63 64 61 60 61 62 61
65 64 65 66 66 66 66 66 65 65 65 65 65 64 64 64 64 65 64 65 65 64 64 64 63 63 63 63 63 63 62 61 61
64 64 65 65 66 65 65 65 65 64 63 63 63 62 63 63 64 63 63 65 65 65 65 65 64 63 63 63 63 63 63 63 63
62 62 64 65 65 65 64 64 63 62 61 60 60 60 62 63 63 63 63 64 64 64 64 64 64 64 64 63 63 63 63 63 63
58 60 61 62 63 63 62 61 59 57 56 56 56 57 59 61 62 63 64 64 64 64 64 64 64 63 64 64 64 64 64 64 64
54 57 59 61 61 61 59 55 51 49 49 50 51 54 56 57 60 63 63 63 63 63 63 62 62 62 62 62 63 63 64 63 64
34 34 37 40 45 48 47 46 44 43 44 44 45 48 50 53 57 61 62 63 62 62 61 61 61 61 61 61 61 61 62 62 62
34 30 27 31 33 36 39 37 35 35 37 37 37 41 42 45 53 56 61 61 60 60 60 60 59 59 59 59 58 59 60 60 60
32 28 32 30 31 37 38 38 35 30 32 36 36 35 35 37 39 46 57 57 58 57 57 57 56 56 56 56 56 57 57 57 58
28 32 32 29 36 32 31 32 32 34 26 23 26 29 32 32 35 39 42 54 53 53 53 53 52 52 51 51 52 53 54 54 54
23 25 31 33 28 26 22 19 18 17 17 18 18 19 23 27 28 31 33 38 47 48 49 48 48 48 48 47 47 48 48 49 50
23 24 26 30 32 23 20 18 16 15 14 14 14 13 14 16 20 24 27 31 33 41 42 44 45 45 45 45 45 45 45 45 45
23 24 25 26 25 22 20 18 16 16 16 14 14 14 13 11 11 11 14 18 21 29 36 38 41 42 43 44 43 43 43 43 43
22 23 25 25 24 22 20 19 18 17 15 12 15 15 16 15 14 12 12 13 14 14 19 26 33 36 38 40 41 41 41 41 41
21 22 23 24 22 21 19 19 18 17 17 14 14 15 14 13 13 13 14 14 13 14 14 13 14 25 33 34 36 39 40 39 39
20 21 22 22 21 20 18 17 16 16 19 12 12 8 10 13 13 14 12 14 14 13 13 12 12 15 23 30 30 33 36 38 38
18 20 21 21 21 19 18 17 14 13 18 18 17 10 8 10 15 13 13 12 13 13 14 13 15 16 19 25 27 29 32 35 36
17 17 18 20 21 18 18 18 18 17 15 16 16 17 13 10 8 14 14 13 10 12 12 14 14 19 23 29 28 29 31 33 34
17 17 17 18 19 18 17 16 16 16 16 14 14 14 14 13 11 9 12 13 13 12 12 14 15 20 23 22 25 26 26 28 29
Wind_Speed
23 23 20 20 23 23 24 24 24 24 23 23 21 19 17 15 16 16 14 17 19 19 18 21 21 20 21 21 21 20 19 19 18
21 22 19 18 23 25 25 25 25 23 24 23 22 20 18 16 14 12 12 17 20 21 20 20 20 20 19 18 18 19 18 17 20
21 21 19 18 22 26 26 24 24 24 23 23 22 20 17 16 15 12 12 16 18 20 20 20 19 19 18 17 16 14 15 17 17
20 21 18 20 24 26 24 25 25 24 24 23 23 22 19 17 14 14 13 16 19 18 18 18 18 18 17 17 16 15 15 14 15
20 19 20 23 25 25 26 25 25 24 24 22 22 21 20 19 16 14 14 18 20 20 19 20 20 19 16 15 16 16 15 13 12
16 17 19 22 23 25 26 25 25 24 24 21 20 20 18 18 15 13 17 20 23 29 29 27 26 25 25 24 21 20 20 17 14
12 18 20 22 23 25 24 21 18 17 14 14 18 18 19 19 17 13 20 24 28 29 29 31 30 30 29 28 28 29 28 26 24
12 11 12 13 15 15 16 15 14 16 15 14 15 17 17 16 16 20 21 26 29 29 29 29 29 29 28 28 28 28 28 28 28
11 12 10 12 10 15 14 15 17 18 17 17 17 18 16 14 15 21 24 26 28 29 29 28 27 28 27 26 26 27 26 28 28
10 11 9 11 9 12 15 16 17 18 16 17 18 18 18 17 14 14 25 26 29 29 27 25 25 27 26 26 26 26 25 26 26
13 13 11 8 8 11 15 15 17 16 14 18 17 17 17 16 17 14 16 25 27 26 25 25 25 26 26 23 22 22 23 25 24
15 15 15 13 9 16 18 17 18 18 16 18 17 16 17 17 17 15 14 16 27 25 24 24 24 24 23 22 22 22 22 21 22
14 15 14 12 15 12 17 17 19 18 18 16 15 16 17 17 17 17 15 17 16 22 23 23 22 22 21 21 20 20 21 21 20
14 14 14 12 15 16 17 17 17 20 19 19 17 16 16 16 16 18 18 17 16 14 20 22 22 21 20 19 19 19 19 19 19
15 14 15 14 17 17 17 21 17 19 21 21 19 16 14 14 14 15 15 15 15 15 15 14 17 20 19 18 18 17 17 17 17
15 14 15 13 17 18 20 21 24 20 20 19 19 15 14 13 12 11 12 13 13 13 13 12 11 12 17 17 17 16 15 16 16
12 15 15 15 18 19 21 21 19 13 7 10 10 7 5 7 7 9 10 11 10 11 11 12 11 9 10 13 15 15 14 14 14
12 12 14 15 17 20 19 20 19 19 4 8 6 6 5 8 2 4 6 7 8 8 8 10 10 9 9 10 12 13 13 13 13
10 10 12 13 12 17 16 11 9 13 16 5 4 4 8 6 7 3 3 4 6 6 6 7 9 9 10 12 14 13 13 13 13
10 9 11 12 11 12 13 12 11 7 10 5 5 4 5 5 5 8 8 3 3 4 5 6 8 9 10 10 11 12 12 12 12
Wind_Direction
107 107 106 110 111 116 116 119 111 104 105 102 96 90 82 92 102 104 103 101 101 108 108 104 98 96 96 93 91 95 92 84 76
110 106 99 103 115 117 117 112 108 108 106 102 94 86 82 95 95 102 108 109 105 107 107 104 100 97 97 94 97 97 99 96 84
118 113 111 113 116 113 110 109 109 104 100 96 89 81 82 88 88 90 99 105 105 105 104 102 101 100 97 95 90 97 99 98 95
121 113 108 128 120 114 114 109 104 99 96 90 81 73 76 84 81 86 97 98 101 101 102 100 100 99 97 94 88 81 82 94 105
109 106 107 115 112 116 111 107 103 99 93 84 76 71 73 82 80 82 93 98 95 93 94 93 91 91 91 92 89 82 79 80 96
107 110 113 111 111 110 111 107 101 96 88 82 77 77 74 70 68 82 97 98 96 88 85 85 82 82 81 79 78 77 71 65 67
104 116 117 116 114 109 107 104 100 96 94 83 75 81 77 62 50 77 91 97 97 93 89 83 77 74 73 72 68 66 67 68 65
86 81 90 94 101 105 104 102 95 96 97 89 86 83 72 63 56 48 94 94 91 90 88 86 82 75 70 69 68 66 63 63 62
110 95 81 92 100 110 109 103 96 89 88 87 83 81 76 65 62 49 67 86 87 84 81 82 85 81 73 71 68 64 64 62 61
116 110 96 90 99 103 102 93 89 84 78 73 77 72 71 66 58 48 60 75 81 83 82 83 82 79 73 66 65 65 63 62 60
128 121 110 102 104 101 104 105 100 91 87 84 83 79 75 69 62 51 41 73 78 79 80 79 79 79 78 71 69 67 65 63 60
131 132 138 136 112 110 107 103 100 96 89 81 81 79 80 78 75 65 57 55 73 75 75 76 77 78 78 76 73 70 67 63 59
136 133 135 146 124 126 114 116 106 100 98 95 85 85 82 79 75 71 69 66 66 74 76 75 76 77 79 78 75 72 69 67 63
136 135 135 136 128 119 117 111 112 112 101 97 88 81 80 81 81 78 73 69 70 74 66 74 74 73 73 75 75 72 68 65 62
137 135 138 138 124 117 120 116 112 111 111 100 85 78 76 77 77 78 78 75 75 74 71 66 68 70 71 68 67 68 65 63 58
142 139 142 138 132 133 130 123 121 115 119 106 89 75 71 73 72 74 76 73 73 75 73 71 72 68 63 66 61 60 60 57 52
143 148 148 141 134 137 140 140 133 130 161 131 118 126 100 70 62 67 75 75 72 71 72 66 62 62 65 60 60 52 50 48 46
147 148 148 145 148 152 153 152 147 152 157 161 134 146 162 145 104 75 74 80 74 70 72 62 60 65 67 61 57 50 44 39 33
137 141 146 151 148 153 156 153 148 151 154 129 74 75 132 160 159 182 133 89 85 77 74 72 65 71 74 62 60 49 41 31 20
129 135 139 147 147 147 152 150 151 144 154 137 141 106 88 108 145 162 172 153 122 82 84 97 86 80 75 68 50 39 26 16 5